Regional Weather Roundup
Issued by NWS Sterling, VA

Home | Current Version | Previous Version | Text Only | Print | Product List | Glossary Off
Versions: 1 2 3 4 5 6 7 8 9 10 11 12 13 14 15 16 17 18 19 20 21 22 23 24 25 26 27 28 29 30 31 32 33 34 35 36 37 38 39 40 41 42 43 44 45 46 47 48 49 50

000
ASUS41 KLWX 220311
RWRLWX

REGIONAL WEATHER ROUNDUP
NATIONAL WEATHER SERVICE BALTIMORE MD/WASHINGTON DC
1000 PM EST SUN JAN 21 2018

Note: "FAIR" indicates few or no clouds below 12,000 feet
with no significant weather and/or obstructions to visibility.
 TC=TEMPERATURE CELSIUS

 * =Non NWS site. Station does not report precipitation (e.g. rain,
    snow, etc.), thunder, or fog.

DCZ001-MDZ009-015-VAZ040>042-051-053>054-220400-
WASHINGTON METRO

CITY           SKY/WX    TMP DP  RH WIND       PRES   REMARKS
WASHINGTON NAT CLOUDY    51  38  60 S12       30.15S
DULLES         MOCLDY    53  42  66 S6        30.14S
ANDREWS AFB    CLOUDY    54  38  54 S14       30.14S
FT BELVOIR     CLOUDY    43  37  78 CALM        N/A
QUANTICO       CLOUDY    47  41  80 SW3       30.17R
COLLEGE PARK*  CLOUDY    43  36  75 CALM      30.15S
LEESBURG*      MOCLDY    43  39  87 CALM      30.14S
MANASSAS*      CLOUDY    42  36  79 CALM      30.15S
GAITHERSBURG*  MOCLDY    47  37  68 SE6       30.14S

$$

MDZ006>007-011-014-220400-
BALTIMORE METRO

CITY           SKY/WX    TMP DP  RH WIND       PRES   REMARKS
BWI AIRPORT    MOCLDY    44  38  79 CALM      30.14S
MD SCIENCE CTR   N/A     48  38  68 MISG      30.15F
MARTIN STATE   CLOUDY    41  37  87 CALM      30.18R
ANNAPOLIS      CLOUDY    48  39  71 S5        30.16S
FORT MEADE*    MOCLDY    39  34  81 CALM      30.17S

$$

MDZ012-015-019>023-220400-
MARYLAND EASTERN SHORE

CITY           SKY/WX    TMP DP  RH WIND       PRES   REMARKS
OCEAN CITY     CLOUDY    51  38  60 SW13      30.20S
SALISBURY      CLOUDY    52  39  61 S8        30.19R
BAY BRIDGE AP* CLOUDY    48  37  66 S10G17    30.16S
CAMBRIDGE*     MOCLDY    48  39  71 S8G16     30.18S
EASTON*        PTCLDY    52  39  62 S10       30.21R

$$

MDZ017>025-220400-
SOUTHERN MARYLAND

CITY           SKY/WX    TMP DP  RH WIND       PRES   REMARKS
PATUXENT RIVER NOT AVBL
ST INIGOES     NOT AVBL
LEONARDTOWN*   FAIR      52  37  58 SW6       30.18S

$$

MDZ003>005-220400-
NORTH CENTRAL MARYLAND

CITY           SKY/WX    TMP DP  RH WIND       PRES   REMARKS
FREDERICK*     FAIR      41  34  75 CALM      30.16S
HAGERSTOWN APT CLOUDY    50  40  68 CALM      30.11S
WESTMINSTER*   CLOUDY    46  39  76 S5        30.13S

$$

MDZ501>502-220400-
WESTERN MARYLAND

CITY           SKY/WX    TMP DP  RH WIND       PRES   REMARKS
OAKLAND*         N/A     45  45 100 SW7       30.11R
CUMBERLAND*    MOCLDY    46  43  87 CALM      30.15S

$$

VAZ025>031-220400-
SHENANDOAH VALLEY

CITY           SKY/WX    TMP DP  RH WIND       PRES   REMARKS
WINCHESTER*    CLOUDY    52  41  66 SW3       30.13S
FRONT ROYAL*   MOCLDY    54  43  66 SE5       30.12S
LURAY*         MOCLDY    52  43  71 SW6       30.15S
NEW MARKET*    MOCLDY    51  43  73 W6        30.15S
STAUNTON*      CLOUDY    44  39  83 S6        30.18S
WAYNESBORO*    CLOUDY    52  45  75 W6        30.17S

$$

WVZ021-048>050-054>055-220400-
EASTERN WEST VIRGINIA PANHANDLE

CITY           SKY/WX    TMP DP  RH WIND       PRES   REMARKS
MARTINSBURG    CLOUDY    45  40  82 S3        30.10S
PETERSBURG*    CLOUDY    55  44  65 S10       30.12S

$$

VAZ036>039-050-220400-
CENTRAL FOOTHILLS

CITY           SKY/WX    TMP DP  RH WIND       PRES   REMARKS
CHARLOTTESVILL MOCLDY    58  43  57 CALM      30.16R
CULPEPER*      CLOUDY    48  40  71 CALM      30.16S
ORANGE*        MOCLDY    46  39  76 CALM      30.16R
GORDONSVILLE*  CLOUDY    47  42  84 CALM      30.16R
WARRENTON*     CLOUDY    45  36  71 CALM      30.14S

$$

VAZ055>057-220400-
NORTH AND CENTRAL PIEDMONT

CITY           SKY/WX    TMP DP  RH WIND       PRES   REMARKS
FREDERICKSBRG* MOCLDY    54  43  67 CALM      30.16R
STAFFORD*      CLOUDY    50  41  72 CALM      30.20R

$$

NCZ024-NYZ072-PAZ021-071-VAZ022-071-220400-
OTHER REGIONAL OBSERVATIONS

CITY           SKY/WX    TMP DP  RH WIND       PRES   REMARKS
NEW YORK CITY  CLOUDY    49  34  56 CALM      30.19S
PHILADELPHIA   MOCLDY    44  36  73 E3        30.17F
PITTSBURGH     CLOUDY    44  44 100 S3        30.08S
ROANOKE        MOCLDY    47  40  76 CALM      30.20R
RICHMOND       CLOUDY    56  38  50 S10       30.19S
RALEIGH        FAIR      48  41  76 CALM      30.22R

$$

ANZ530>537-220400-
MARINE OBSERVATIONS

STATION/POSITION TIME  TEMP    WIND        PRES
                       AIR SEA DIR/SP/G
                 (UTC) (F)     (DEG/KT/KT) (MB)
THOMAS PT LIGHT  0300   39 33  180/ 10/ 11   N/A
BALT KEY BRIDGE  0242   43     110/  5/  6 1021.1R
COVE POINT       0242   39     170/  9/ 11 1022.3R
LEWISETTA        0242   53 36  220/ 10/ 13 1021.9R
SOLOMONS ISLAND  0242   47 35  150/  4/  5 1021.3R
PINEY POINT      0242          150/  5/  5   N/A

$$




USA.gov is the U.S. government's official web portal to all federal, state and local government web resources and services.